Date String (YYYY-MM-DD hh:mm:ss) UTC,Instrument flags,Ambient pressure (hPa),Sample flow (lpm),Bypass flow (lpm),Sample temperature (°C),Ambient temperature (°C),ASC tube jacket temperature (°C),LED temperature (°C),Box temperature (°C),Sample RH (%),Span deviation,Mass concentration (μg/m³),Mass concentration (μg/m³),Mass concentration (μg/m³)
DateTimeUTC,F1_M11,P_M11,Q1_M11,Q2_M11,T1_M11,T2_M11,T3_M11,T4_M11,T5_M11,U1_M11,ZSPAN_M11,X0_M11,X2_M11,X1_M11
2023-03-04 14:00:00,,0821.5,5.01,0.00,22.2,21.0,00.0,31.0,23.8,14.8,-001.9,0011.72,0009.80,0009.59
2023-03-04 14:01:00,,0821.6,5.01,0.00,22.2,20.8,00.0,31.0,23.8,14.9,-001.9,0011.74,0009.82,0009.62
2023-03-04 14:02:00,,0821.6,5.00,0.00,22.2,20.6,00.0,31.0,23.7,14.9,-001.8,0011.92,0009.86,0009.65
2023-03-04 14:03:00,,0821.6,4.99,0.00,22.2,20.5,00.0,31.0,23.7,14.9,-001.8,0012.32,0009.87,0009.64
2023-03-04 14:04:00,,0821.7,4.98,0.00,22.1,20.4,00.0,31.0,23.7,14.9,-001.7,0012.42,0009.90,0009.65
2023-03-04 14:05:00,,0821.7,5.00,0.00,22.1,20.4,00.0,30.9,23.7,14.9,-001.7,0012.42,0009.90,0009.66
2023-03-04 14:06:00,,0821.7,5.01,0.00,22.1,20.4,00.0,30.9,23.7,14.9,-001.5,0012.45,0009.93,0009.67
2023-03-04 14:07:00,,0821.7,5.00,0.00,22.1,21.3,00.0,30.9,23.9,14.8,-001.2,0012.40,0009.91,0009.67
2023-03-04 14:08:00,,0821.8,4.98,0.00,22.3,22.5,00.0,30.9,24.2,14.7,-000.8,0012.41,0009.91,0009.66
2023-03-04 14:09:00,,0821.8,5.03,0.00,22.4,23.1,00.0,31.0,24.4,14.7,-000.4,0012.41,0009.91,0009.66
2023-03-04 14:10:00,,0821.7,4.98,0.00,22.4,22.6,00.0,31.0,24.3,14.6,-000.3,0012.41,0009.94,0009.69
2023-03-04 14:11:00,,0821.7,4.99,0.00,22.4,22.1,00.0,31.0,24.2,14.6,-000.3,0012.41,0009.94,0009.70
2023-03-04 14:12:00,,0821.7,5.00,0.00,22.4,21.7,00.0,31.0,24.1,14.6,-000.4,0012.44,0009.95,0009.72
2023-03-04 14:13:00,,0821.7,5.01,0.00,22.4,21.3,00.0,31.1,24.1,14.7,-000.5,0012.30,0009.98,0009.75
2023-03-04 14:14:00,,0821.7,5.01,0.00,22.3,21.1,00.0,31.1,24.0,14.6,-000.6,0011.96,0009.98,0009.77
2023-03-04 14:15:00,,0821.8,4.98,0.00,22.3,20.7,00.0,31.0,23.8,14.6,-001.0,0011.83,0009.91,0009.74
2023-03-04 14:16:00,,0821.8,4.99,0.00,22.2,20.4,00.0,31.0,23.7,14.6,-000.8,0011.75,0009.87,0009.70
2023-03-04 14:17:00,,0821.8,5.00,0.00,22.1,20.2,00.0,31.0,23.6,14.6,-000.9,0011.68,0009.79,0009.63
2023-03-04 14:18:00,,0821.8,4.99,0.00,22.1,20.0,00.0,31.0,23.5,14.6,-001.2,0011.66,0009.75,0009.58
2023-03-04 14:19:00,,0821.8,5.00,0.00,22.0,20.2,00.0,31.0,23.5,14.6,-001.5,0011.64,0009.75,0009.58
2023-03-04 14:20:00,,0821.8,5.00,0.00,22.1,21.3,00.0,30.9,23.8,14.5,-001.8,0011.54,0009.71,0009.57
2023-03-04 14:21:00,,0821.8,4.96,0.00,22.2,22.4,00.0,30.9,24.1,14.4,-002.0,0011.50,0009.70,0009.57
2023-03-04 14:22:00,,0821.9,5.00,0.00,22.3,22.6,00.0,31.0,24.2,14.3,-002.2,0011.54,0009.73,0009.60
2023-03-04 14:23:00,,0821.9,5.01,0.00,22.3,22.0,00.0,31.0,24.0,14.3,-002.3,0011.57,0009.74,0009.61
2023-03-04 14:24:00,,0821.8,4.99,0.00,22.2,21.4,00.0,31.0,23.9,14.3,-002.1,0011.53,0009.72,0009.58
2023-03-04 14:25:00,,0821.8,5.00,0.00,22.2,21.0,00.0,31.0,23.8,14.3,-002.4,0011.51,0009.72,0009.58
2023-03-04 14:26:00,,0821.8,4.99,0.00,22.2,20.7,00.0,31.0,23.7,14.3,-002.2,0011.56,0009.77,0009.63
2023-03-04 14:27:00,,0821.8,5.01,0.00,22.1,20.4,00.0,31.0,23.7,14.3,-002.4,0011.60,0009.80,0009.65
2023-03-04 14:28:00,,0821.8,5.04,0.00,22.1,20.2,00.0,31.0,23.6,14.3,-002.5,0011.59,0009.82,0009.69
2023-03-04 14:29:00,,0821.9,5.04,0.00,22.0,20.1,00.0,30.9,23.5,14.3,-002.1,0011.60,0009.88,0009.74
2023-03-04 14:30:00,,0822.1,5.04,0.00,22.0,19.9,00.0,30.9,23.4,14.4,-001.8,0011.62,0009.90,0009.76
2023-03-04 14:31:00,,0822.1,5.01,0.00,21.9,19.8,00.0,30.9,23.3,14.4,-001.7,0011.66,0009.92,0009.78
2023-03-04 14:32:00,,0821.9,5.00,0.00,21.8,19.7,00.0,30.8,23.3,14.5,-001.8,0011.69,0009.94,0009.80
2023-03-04 14:33:00,,0821.9,5.01,0.00,21.8,20.1,00.0,30.8,23.3,14.5,-001.8,0011.63,0009.91,0009.77
2023-03-04 14:34:00,,0822.1,5.00,0.00,21.9,21.4,00.0,30.8,23.6,14.5,-001.9,0011.55,0009.85,0009.72
2023-03-04 14:35:00,,0822.0,5.04,0.00,22.0,22.5,00.0,30.8,23.9,14.5,-002.0,0011.58,0009.87,0009.73
2023-03-04 14:36:00,,0822.1,4.99,0.00,22.1,22.7,00.0,30.8,24.1,14.5,-001.8,0011.58,0009.88,0009.74
2023-03-04 14:37:00,,0822.0,4.99,0.00,22.2,22.2,00.0,30.9,24.0,14.5,-001.8,0011.63,0009.91,0009.76
2023-03-04 14:38:00,,0822.0,5.01,0.00,22.2,21.8,00.0,30.9,23.9,14.6,-001.9,0011.63,0009.91,0009.76
2023-03-04 14:39:00,,0822.0,4.98,0.00,22.2,21.4,00.0,30.9,23.9,14.7,-001.8,0011.67,0009.94,0009.78
2023-03-04 14:40:00,,0821.9,5.00,0.00,22.2,21.2,00.0,30.9,23.9,14.8,-002.0,0011.67,0009.91,0009.75
2023-03-04 14:41:00,,0821.9,5.00,0.00,22.1,21.0,00.0,30.9,23.8,14.9,-002.1,0011.59,0009.85,0009.70
2023-03-04 14:42:00,,0822.1,5.01,0.00,22.1,20.8,00.0,30.9,23.8,15.0,-002.3,0011.58,0009.82,0009.66
2023-03-04 14:43:00,,0822.0,5.02,0.00,22.1,20.7,00.0,30.9,23.8,15.0,-002.2,0011.53,0009.77,0009.60
2023-03-04 14:44:00,,0821.8,5.01,0.00,22.1,20.6,00.0,30.9,23.7,15.0,-002.2,0011.52,0009.74,0009.57
2023-03-04 14:45:00,,0821.8,5.00,0.00,22.1,20.5,00.0,30.9,23.7,15.0,-002.4,0011.55,0009.75,0009.58
2023-03-04 14:46:00,,0821.8,4.99,0.00,22.1,20.4,00.0,30.9,23.7,15.1,-002.5,0011.60,0009.77,0009.59
2023-03-04 14:47:00,,0821.8,5.01,0.00,22.0,20.4,00.0,30.9,23.7,15.1,-002.5,0011.64,0009.79,0009.61
2023-03-04 14:48:00,,0821.8,4.99,0.00,22.0,20.3,00.0,30.8,23.7,15.1,-002.5,0011.65,0009.79,0009.61
2023-03-04 14:49:00,,0821.8,4.99,0.00,22.0,20.3,00.0,30.8,23.7,15.2,-002.5,0011.69,0009.81,0009.62
2023-03-04 14:50:00,,0821.8,5.00,0.00,22.0,20.3,00.0,30.8,23.6,15.4,-002.3,0011.71,0009.83,0009.65
2023-03-04 14:51:00,,0821.8,5.00,0.00,22.0,20.2,00.0,30.8,23.6,15.6,-002.3,0011.74,0009.88,0009.69
2023-03-04 14:52:00,,0821.8,5.00,0.00,22.0,20.9,00.0,30.8,23.8,15.8,-002.4,0011.77,0009.91,0009.73
2023-03-04 14:53:00,,0821.9,4.99,0.00,22.1,22.2,00.0,30.8,24.0,15.9,-002.2,0011.92,0009.94,0009.78
2023-03-04 14:54:00,,0821.8,5.05,0.00,22.2,23.1,00.0,30.9,24.2,15.8,-002.1,0012.04,0010.00,0009.84
2023-03-04 14:55:00,,0821.8,5.01,0.00,22.3,22.8,00.0,30.9,24.3,15.8,-002.1,0012.06,0010.04,0009.88
2023-03-04 14:56:00,,0821.8,5.00,0.00,22.3,22.3,00.0,30.9,24.2,15.8,-002.0,0012.15,0010.08,0009.91
2023-03-04 14:57:00,,0821.8,4.97,0.00,22.3,21.9,00.0,30.9,24.1,15.8,-001.7,0012.20,0010.11,0009.93
2023-03-04 14:58:00,,0821.9,5.00,0.00,22.3,21.6,00.0,31.0,24.1,15.8,-001.7,0012.19,0010.11,0009.93
2023-03-04 14:59:00,,0821.8,5.00,0.00,22.3,21.3,00.0,31.0,24.1,15.7,-001.8,0012.16,0010.10,0009.93
